ACA96 CYUL-SBGR

Flight info

Callsign ACA96
Flight time N/A
Altitude 35000
Route OVAXO DCT VIRKA DCT ENE/N0480F360 DCT BRUWN/N0476F350 Y578 BORQE/N0467F370 Y578 KAYYT/M082F370 L462 ANVER M590 BDA L576 CITRS/N0472F390 UL576 TRAPP/N0479F380 UL576 NISKI/N0475F390 DCT OROVO/N0473F400 DCT ITALA/N0476F390 UL776 VUNIG/N0473F400 UZ38 VUNOX
Aircraft A333/H-SDE3GHIJ2J3J5M1RVWXY/LB2D1

Departure

Time 2026-05-07 07:45
Airport Montreal / Pierre Elliott Trudeau International Airport (CYUL)

Arrival

Time N/A
Airport São Paulo/Guarulhos–Governor André Franco Montoro International Airport (SBGR)
Time Latitude Longitude Altitude Speed Heading
2026-05-07 07:19 45.45981 -73.75634 115 ft 0 kts 178°
2026-05-07 07:19 45.45983 -73.75635 115 ft 0 kts 177°
2026-05-07 07:35 45.46008 -73.75637 117 ft 4 kts 177°
2026-05-07 07:35 45.46030 -73.75638 117 ft 4 kts 169°
2026-05-07 07:35 45.46052 -73.75652 115 ft 4 kts 122°
2026-05-07 07:35 45.46059 -73.75687 115 ft 4 kts 89°
2026-05-07 07:36 45.46058 -73.75723 115 ft 4 kts 88°
2026-05-07 07:36 45.46057 -73.75762 115 ft 4 kts 88°
2026-05-07 07:36 45.46056 -73.75793 116 ft 0 kts 87°
2026-05-07 07:38 45.46076 -73.75733 120 ft 8 kts 40°
2026-05-07 07:38 45.46125 -73.75666 116 ft 14 kts 67°
2026-05-07 07:38 45.46137 -73.75485 120 ft 23 kts 88°
2026-05-07 07:39 45.46145 -73.75259 119 ft 23 kts 87°
2026-05-07 07:39 45.46152 -73.75035 120 ft 22 kts 90°
2026-05-07 07:39 45.46156 -73.74817 115 ft 22 kts 88°
2026-05-07 07:39 45.46151 -73.74605 116 ft 14 kts 112°
2026-05-07 07:40 45.46126 -73.74458 116 ft 21 kts 89°
2026-05-07 07:40 45.46135 -73.74197 118 ft 28 kts 88°
2026-05-07 07:40 45.46169 -73.74015 115 ft 20 kts 47°
2026-05-07 07:40 45.46299 -73.73848 115 ft 27 kts 42°
2026-05-07 07:41 45.46435 -73.73669 116 ft 26 kts 43°
2026-05-07 07:41 45.46574 -73.73489 115 ft 28 kts 43°
2026-05-07 07:41 45.46715 -73.73304 116 ft 27 kts 43°
2026-05-07 07:41 45.46852 -73.73123 116 ft 27 kts 43°
2026-05-07 07:42 45.46996 -73.72934 116 ft 29 kts 42°
2026-05-07 07:42 45.47141 -73.72744 115 ft 28 kts 43°
2026-05-07 07:42 45.47283 -73.72559 117 ft 28 kts 43°
2026-05-07 07:42 45.47423 -73.72375 115 ft 27 kts 43°
2026-05-07 07:43 45.47561 -73.72195 116 ft 27 kts 43°
2026-05-07 07:43 45.47695 -73.72019 115 ft 26 kts 43°
2026-05-07 07:43 45.47794 -73.71889 116 ft 12 kts 44°
2026-05-07 07:43 45.47798 -73.71793 120 ft 10 kts 124°
2026-05-07 07:44 45.47750 -73.71713 116 ft 14 kts 133°
2026-05-07 07:44 45.47698 -73.71635 117 ft 0 kts 139°
2026-05-07 07:44 45.47682 -73.71638 114 ft 6 kts 194°
2026-05-07 07:44 45.47635 -73.71693 117 ft 12 kts 223°
2026-05-07 07:45 45.47488 -73.71884 116 ft 56 kts 222°
2026-05-07 07:45 45.47044 -73.72466 115 ft 118 kts 224°
2026-05-07 07:45 45.46289 -73.73442 225 ft 168 kts 223°
2026-05-07 07:45 45.45403 -73.74602 1037 ft 176 kts 226°
2026-05-07 07:46 45.44549 -73.75869 2046 ft 180 kts 228°
2026-05-07 07:46 45.43628 -73.77146 2502 ft 192 kts 226°
2026-05-07 07:46 45.42605 -73.78480 2839 ft 209 kts 225°
2026-05-07 07:46 45.41484 -73.79965 3072 ft 231 kts 226°
2026-05-07 07:47 45.40246 -73.81567 3390 ft 248 kts 216°
2026-05-07 07:47 45.38635 -73.82417 4130 ft 253 kts 188°
2026-05-07 07:47 45.36896 -73.81949 4902 ft 261 kts 158°
2026-05-07 07:47 45.35481 -73.80308 5614 ft 270 kts 130°
2026-05-07 07:48 45.34431 -73.78023 6187 ft 280 kts 127°
2026-05-07 07:48 45.33357 -73.75671 6698 ft 288 kts 127°
2026-05-07 07:48 45.32211 -73.73315 7368 ft 289 kts 130°
2026-05-07 07:48 45.31026 -73.71024 8196 ft 287 kts 131°
2026-05-07 07:49 45.29818 -73.68761 8909 ft 288 kts 132°
2026-05-07 07:49 45.28587 -73.66496 9598 ft 291 kts 132°
2026-05-07 07:49 45.27340 -73.64215 10190 ft 295 kts 133°
2026-05-07 07:49 45.26045 -73.61858 10467 ft 311 kts 133°
2026-05-07 07:50 45.24679 -73.59373 10692 ft 327 kts 132°
2026-05-07 07:50 45.23249 -73.56762 10924 ft 343 kts 132°
2026-05-07 07:50 45.21756 -73.54025 11173 ft 358 kts 131°
2026-05-07 07:50 45.20199 -73.51166 11408 ft 373 kts 131°
2026-05-07 07:51 45.19142 -73.49221 11641 ft 380 kts 131°
2026-05-07 07:51 45.17517 -73.46229 12134 ft 386 kts 131°
2026-05-07 07:51 45.15871 -73.43197 12659 ft 391 kts 131°
2026-05-07 07:51 45.14202 -73.40129 13179 ft 395 kts 131°
2026-05-07 07:52 45.11956 -73.36012 13874 ft 401 kts 132°
2026-05-07 07:52 45.10798 -73.33893 14211 ft 403 kts 132°
2026-05-07 07:52 45.09079 -73.30751 14730 ft 406 kts 133°
2026-05-07 07:52 45.07338 -73.27577 15184 ft 410 kts 133°
2026-05-07 07:53 45.05582 -73.24382 15662 ft 414 kts 133°
2026-05-07 07:53 45.03807 -73.21152 16165 ft 417 kts 133°
2026-05-07 07:53 45.02021 -73.17917 16664 ft 419 kts 134°
2026-05-07 07:53 45.00179 -73.14700 17147 ft 421 kts 135°
2026-05-07 07:54 44.98296 -73.11511 17662 ft 424 kts 136°
2026-05-07 07:54 44.96412 -73.08367 18119 ft 427 kts 137°
2026-05-07 07:54 44.94482 -73.05164 18528 ft 430 kts 137°
2026-05-07 07:54 44.92538 -73.01937 18938 ft 433 kts 137°
2026-05-07 07:55 44.90585 -72.98688 19310 ft 435 kts 136°
2026-05-07 07:55 44.88621 -72.95417 19703 ft 438 kts 136°
2026-05-07 07:55 44.86647 -72.92129 20032 ft 442 kts 136°
2026-05-07 07:55 44.84647 -72.88797 20389 ft 446 kts 136°
2026-05-07 07:56 44.82642 -72.85459 20793 ft 448 kts 136°
2026-05-07 07:56 44.80622 -72.82099 21171 ft 451 kts 136°
2026-05-07 07:56 44.78591 -72.78723 21542 ft 453 kts 136°
2026-05-07 07:56 44.76548 -72.75327 21930 ft 456 kts 136°
2026-05-07 07:57 44.74487 -72.71909 22299 ft 459 kts 136°
2026-05-07 07:57 44.72547 -72.68698 22574 ft 462 kts 137°
2026-05-07 07:57 44.70451 -72.65237 22871 ft 466 kts 137°
2026-05-07 07:57 44.68347 -72.61764 23249 ft 468 kts 137°
2026-05-07 07:58 44.66234 -72.58272 23598 ft 470 kts 137°
2026-05-07 07:58 44.64107 -72.54766 23863 ft 474 kts 137°
2026-05-07 07:58 44.61961 -72.51234 24119 ft 477 kts 137°
2026-05-07 07:58 44.59800 -72.47683 24402 ft 479 kts 137°
2026-05-07 07:59 44.57631 -72.44124 24674 ft 482 kts 137°
2026-05-07 07:59 44.55443 -72.40538 24916 ft 485 kts 139°
2026-05-07 07:59 44.53266 -72.36974 25184 ft 488 kts 139°
2026-05-07 07:59 44.51020 -72.33302 25454 ft 492 kts 139°
2026-05-07 08:00 44.48787 -72.29658 25705 ft 495 kts 139°
2026-05-07 08:00 44.46539 -72.25993 26001 ft 497 kts 139°
2026-05-07 08:00 44.44278 -72.22309 26290 ft 500 kts 139°
2026-05-07 08:00 44.42035 -72.18660 26559 ft 502 kts 139°
2026-05-07 08:01 44.39754 -72.14952 26838 ft 505 kts 139°
2026-05-07 08:01 44.37456 -72.11223 27019 ft 508 kts 140°
2026-05-07 08:01 44.35137 -72.07468 27274 ft 511 kts 140°
2026-05-07 08:01 44.32811 -72.03704 27479 ft 513 kts 141°
2026-05-07 08:02 44.30472 -71.99932 27725 ft 516 kts 141°
2026-05-07 08:02 44.28111 -71.96129 27912 ft 520 kts 141°
2026-05-07 08:02 44.25741 -71.92307 28179 ft 522 kts 141°
2026-05-07 08:02 44.23359 -71.88471 28398 ft 524 kts 141°
2026-05-07 08:03 44.20966 -71.84621 28652 ft 526 kts 142°
2026-05-07 08:03 44.18567 -71.80764 28987 ft 527 kts 142°
2026-05-07 08:03 44.16171 -71.76917 29319 ft 527 kts 142°
2026-05-07 08:03 44.13768 -71.73064 29672 ft 527 kts 142°
2026-05-07 08:04 44.11353 -71.69208 29880 ft 529 kts 143°
2026-05-07 08:04 44.08942 -71.65349 30272 ft 527 kts 142°
2026-05-07 08:04 44.06542 -71.61502 30522 ft 527 kts 143°
2026-05-07 08:05 44.01677 -71.53784 30686 ft 534 kts 144°
2026-05-07 08:05 43.99216 -71.49905 30863 ft 535 kts 143°
2026-05-07 08:05 43.96768 -71.46018 31275 ft 534 kts 143°
2026-05-07 08:05 43.94333 -71.42138 31645 ft 532 kts 143°
2026-05-07 08:06 43.91898 -71.38267 31939 ft 532 kts 143°
2026-05-07 08:06 43.89460 -71.34405 32154 ft 532 kts 143°
2026-05-07 08:06 43.87049 -71.30603 32386 ft 533 kts 143°
2026-05-07 08:06 43.84561 -71.26694 32510 ft 535 kts 144°
2026-05-07 08:07 43.82130 -71.22880 32734 ft 535 kts 144°
2026-05-07 08:07 43.79668 -71.19021 32908 ft 536 kts 144°
2026-05-07 08:07 43.77195 -71.15148 33080 ft 537 kts 144°
2026-05-07 08:07 43.74721 -71.11272 33337 ft 537 kts 144°
2026-05-07 08:08 43.72248 -71.07399 33576 ft 537 kts 144°
2026-05-07 08:08 43.69774 -71.03530 33809 ft 537 kts 144°
2026-05-07 08:08 43.67298 -70.99671 34010 ft 536 kts 144°
2026-05-07 08:08 43.64824 -70.95817 34206 ft 536 kts 144°
2026-05-07 08:09 43.62353 -70.91968 34436 ft 535 kts 144°
2026-05-07 08:09 43.59882 -70.88123 34668 ft 534 kts 144°
2026-05-07 08:09 43.57416 -70.84293 34788 ft 536 kts 144°
2026-05-07 08:10 43.52439 -70.76592 34768 ft 539 kts 145°
2026-05-07 08:10 43.47434 -70.68881 34813 ft 539 kts 147°
2026-05-07 08:10 43.44741 -70.65445 34814 ft 518 kts 157°
2026-05-07 08:11 43.41817 -70.62758 34812 ft 494 kts 168°
2026-05-07 08:11 43.38759 -70.60896 34814 ft 469 kts 178°
2026-05-07 08:11 43.35671 -70.59795 34816 ft 453 kts 185°
2026-05-07 08:12 43.29519 -70.58328 34805 ft 446 kts 188°
2026-05-07 08:12 43.23386 -70.57112 34803 ft 446 kts 188°
2026-05-07 08:13 43.17240 -70.55867 34795 ft 447 kts 188°
2026-05-07 08:13 43.11089 -70.54567 34795 ft 447 kts 188°
2026-05-07 08:14 43.04935 -70.53245 34793 ft 448 kts 188°
2026-05-07 08:14 42.98771 -70.51922 34794 ft 448 kts 188°
2026-05-07 08:15 42.92645 -70.50609 34790 ft 448 kts 188°
2026-05-07 08:15 42.86467 -70.49293 34797 ft 451 kts 188°
2026-05-07 08:16 42.80268 -70.47976 34791 ft 451 kts 188°
2026-05-07 08:16 42.74059 -70.46654 34797 ft 452 kts 188°
2026-05-07 08:17 42.67846 -70.45337 34798 ft 453 kts 188°
2026-05-07 08:17 42.61606 -70.44020 34800 ft 454 kts 188°
2026-05-07 08:18 42.55361 -70.42699 34798 ft 454 kts 188°
2026-05-07 08:18 42.49116 -70.41381 34796 ft 455 kts 188°
2026-05-07 08:19 42.42845 -70.40066 34802 ft 456 kts 188°
2026-05-07 08:19 42.36568 -70.38748 34802 ft 456 kts 188°
2026-05-07 08:20 42.30291 -70.37431 34760 ft 456 kts 188°
2026-05-07 08:20 42.23996 -70.36120 34798 ft 459 kts 188°
2026-05-07 08:21 42.17673 -70.34801 34806 ft 460 kts 188°
2026-05-07 08:21 42.11348 -70.33481 34778 ft 460 kts 188°
2026-05-07 08:22 42.05007 -70.32166 34806 ft 462 kts 188°
2026-05-07 08:22 41.98651 -70.30849 34803 ft 462 kts 188°
2026-05-07 08:23 41.92300 -70.29532 34799 ft 462 kts 188°
2026-05-07 08:23 41.85934 -70.28219 34788 ft 465 kts 188°
2026-05-07 08:24 41.79527 -70.26903 34785 ft 466 kts 188°
2026-05-07 08:24 41.73146 -70.25588 34786 ft 466 kts 188°
2026-05-07 08:25 41.66728 -70.24268 34781 ft 467 kts 187°
2026-05-07 08:25 41.63457 -70.23407 34787 ft 483 kts 181°
2026-05-07 08:25 41.60250 -70.21929 34786 ft 505 kts 171°
2026-05-07 08:25 41.57068 -70.19587 34765 ft 528 kts 160°
2026-05-07 08:26 41.51105 -70.13770 34792 ft 539 kts 155°
2026-05-07 08:26 41.45219 -70.07525 34792 ft 541 kts 154°
2026-05-07 08:27 41.39321 -70.01292 34814 ft 541 kts 154°
2026-05-07 08:27 41.33392 -69.95137 34812 ft 540 kts 155°
2026-05-07 08:28 41.27448 -69.89028 34815 ft 540 kts 155°
2026-05-07 08:28 41.21499 -69.82937 34797 ft 540 kts 155°
2026-05-07 08:29 41.15558 -69.76864 34824 ft 539 kts 155°
2026-05-07 08:29 41.09609 -69.70794 34829 ft 539 kts 155°
2026-05-07 08:30 41.03662 -69.64741 34835 ft 539 kts 155°
2026-05-07 08:30 40.97910 -69.58211 34839 ft 554 kts 146°
2026-05-07 08:31 40.92579 -69.50777 34820 ft 558 kts 143°
2026-05-07 08:31 40.87380 -69.43220 34839 ft 554 kts 142°
2026-05-07 08:32 40.82202 -69.35702 34843 ft 553 kts 143°
2026-05-07 08:32 40.77004 -69.28224 34846 ft 553 kts 143°
2026-05-07 08:33 40.71793 -69.20769 34851 ft 553 kts 143°
2026-05-07 08:33 40.66585 -69.13339 34839 ft 552 kts 142°
2026-05-07 08:34 40.61398 -69.05955 34859 ft 552 kts 142°
2026-05-07 08:34 40.56175 -68.98537 34867 ft 552 kts 142°
2026-05-07 08:35 40.50948 -68.91130 34864 ft 552 kts 142°
2026-05-07 08:35 40.45719 -68.83738 34868 ft 552 kts 142°
2026-05-07 08:36 40.40500 -68.76377 34833 ft 550 kts 142°
2026-05-07 08:36 40.35271 -68.69025 34871 ft 552 kts 142°
2026-05-07 08:37 40.30025 -68.61667 34871 ft 553 kts 142°
2026-05-07 08:37 40.24772 -68.54315 34878 ft 552 kts 142°
2026-05-07 08:38 40.19524 -68.46986 34878 ft 552 kts 141°
2026-05-07 08:38 40.14269 -68.39665 34881 ft 552 kts 142°
2026-05-07 08:39 40.09009 -68.32357 34890 ft 552 kts 141°
2026-05-07 08:39 40.03742 -68.25059 34890 ft 553 kts 141°
2026-05-07 08:40 39.98465 -68.17762 34884 ft 553 kts 141°
2026-05-07 08:40 39.93803 -68.12223 34894 ft 536 kts 155°
2026-05-07 08:41 39.90628 -68.09816 34892 ft 520 kts 166°
2026-05-07 08:41 39.87358 -68.07871 34896 ft 516 kts 168°
2026-05-07 08:41 39.79634 -68.03832 34903 ft 515 kts 170°
2026-05-07 08:42 39.74026 -68.01027 34902 ft 516 kts 170°
2026-05-07 08:42 39.67330 -67.97644 34907 ft 516 kts 170°
2026-05-07 08:43 39.60685 -67.94250 34896 ft 517 kts 169°
2026-05-07 08:43 39.53977 -67.90819 34921 ft 519 kts 169°
2026-05-07 08:44 39.47251 -67.87382 34925 ft 520 kts 169°
2026-05-07 08:44 39.40518 -67.83947 34928 ft 520 kts 169°
2026-05-07 08:45 39.33780 -67.80522 34942 ft 521 kts 169°
2026-05-07 08:45 39.27032 -67.77100 34945 ft 522 kts 169°
2026-05-07 08:46 39.20268 -67.73675 34943 ft 522 kts 169°
2026-05-07 08:46 39.13510 -67.70259 34940 ft 522 kts 168°
2026-05-07 08:47 39.06752 -67.66851 34958 ft 522 kts 168°
2026-05-07 08:47 38.99993 -67.63450 34963 ft 522 kts 168°
2026-05-07 08:48 38.93274 -67.60077 34964 ft 522 kts 168°
2026-05-07 08:48 38.86515 -67.56666 34962 ft 523 kts 167°
2026-05-07 08:49 38.79792 -67.53034 34968 ft 526 kts 166°
2026-05-07 08:49 38.73051 -67.49308 34974 ft 528 kts 166°
2026-05-07 08:50 38.66302 -67.45598 34954 ft 528 kts 165°
2026-05-07 08:50 38.59546 -67.41912 34977 ft 527 kts 165°
2026-05-07 08:51 38.52795 -67.38248 34982 ft 527 kts 165°
2026-05-07 08:51 38.46041 -67.34590 34985 ft 527 kts 165°
2026-05-07 08:52 38.39286 -67.30938 34982 ft 527 kts 165°
2026-05-07 08:52 38.32535 -67.27295 34993 ft 527 kts 165°
2026-05-07 08:53 38.25784 -67.23660 34993 ft 527 kts 166°
2026-05-07 08:53 38.19026 -67.20025 34977 ft 527 kts 165°
2026-05-07 08:54 38.12306 -67.16421 34999 ft 529 kts 165°
2026-05-07 08:54 38.05526 -67.12795 35007 ft 529 kts 165°
2026-05-07 08:55 37.98738 -67.09169 35010 ft 529 kts 165°
2026-05-07 08:55 37.91945 -67.05548 34998 ft 530 kts 164°
2026-05-07 08:56 37.85136 -67.01928 35021 ft 532 kts 164°
2026-05-07 08:56 37.78316 -66.98306 35018 ft 532 kts 164°
2026-05-07 08:57 37.71490 -66.94687 35024 ft 532 kts 164°
2026-05-07 08:57 37.64662 -66.91077 35032 ft 533 kts 164°
2026-05-07 08:58 37.57809 -66.87456 35034 ft 534 kts 163°
2026-05-07 08:58 37.50936 -66.83836 35034 ft 536 kts 164°
2026-05-07 08:59 37.44062 -66.80224 35017 ft 536 kts 163°
2026-05-07 08:59 37.37214 -66.76633 35040 ft 537 kts 163°
2026-05-07 09:00 37.30320 -66.73023 35045 ft 537 kts 163°
2026-05-07 09:00 37.23423 -66.69419 35051 ft 537 kts 163°
2026-05-07 09:01 37.16523 -66.65821 35047 ft 537 kts 163°
2026-05-07 09:01 37.09625 -66.62232 35056 ft 537 kts 163°
2026-05-07 09:02 37.02711 -66.58640 35056 ft 537 kts 163°
2026-05-07 09:02 36.95806 -66.55055 35058 ft 538 kts 162°
2026-05-07 09:03 36.88887 -66.51477 35064 ft 539 kts 162°
2026-05-07 09:03 36.81949 -66.47899 35065 ft 539 kts 162°
2026-05-07 09:04 36.75013 -66.44325 35067 ft 540 kts 162°
2026-05-07 09:04 36.68070 -66.40755 35064 ft 540 kts 162°
2026-05-07 09:05 36.61120 -66.37189 35073 ft 541 kts 162°
2026-05-07 09:05 36.54201 -66.33644 35073 ft 541 kts 162°
2026-05-07 09:06 36.47236 -66.30082 35075 ft 541 kts 162°
2026-05-07 09:06 36.40275 -66.26530 35081 ft 542 kts 162°
2026-05-07 09:07 36.33280 -66.22967 35071 ft 543 kts 161°
2026-05-07 09:07 36.26288 -66.19413 35086 ft 543 kts 161°
2026-05-07 09:08 36.19291 -66.15863 35074 ft 543 kts 161°
2026-05-07 09:08 36.12292 -66.12320 35080 ft 544 kts 161°
2026-05-07 09:09 36.05287 -66.08780 35080 ft 544 kts 161°
2026-05-07 09:09 35.98280 -66.05246 35084 ft 544 kts 161°
2026-05-07 09:10 35.91272 -66.01717 35084 ft 544 kts 161°
2026-05-07 09:10 35.84261 -65.98195 35089 ft 544 kts 161°
2026-05-07 09:11 35.77250 -65.94679 35089 ft 544 kts 161°
2026-05-07 09:11 35.70242 -65.91169 35090 ft 545 kts 161°
2026-05-07 09:12 35.63205 -65.87654 35092 ft 546 kts 161°
2026-05-07 09:12 35.56160 -65.84142 35101 ft 546 kts 161°
2026-05-07 09:13 35.49112 -65.80635 35091 ft 546 kts 161°
2026-05-07 09:13 35.42063 -65.77134 35080 ft 547 kts 160°
2026-05-07 09:14 35.35010 -65.73637 35102 ft 547 kts 160°
2026-05-07 09:14 35.27953 -65.70145 35103 ft 547 kts 160°
2026-05-07 09:15 35.20818 -65.67220 35102 ft 544 kts 166°
2026-05-07 09:15 35.13559 -65.64576 35103 ft 544 kts 167°
2026-05-07 09:16 35.06281 -65.62000 35103 ft 545 kts 167°
2026-05-07 09:16 34.99003 -65.59427 35102 ft 544 kts 166°
2026-05-07 09:17 34.91735 -65.56848 35106 ft 544 kts 166°
2026-05-07 09:17 34.84467 -65.54270 35105 ft 544 kts 166°
2026-05-07 09:18 34.77196 -65.51694 35105 ft 544 kts 166°
2026-05-07 09:18 34.69971 -65.49139 35105 ft 544 kts 166°
2026-05-07 09:19 34.62698 -65.46572 35105 ft 544 kts 166°
2026-05-07 09:19 34.55423 -65.44009 35108 ft 544 kts 166°
2026-05-07 09:20 34.48146 -65.41450 35108 ft 544 kts 166°
2026-05-07 09:20 34.40869 -65.38897 35110 ft 544 kts 166°
2026-05-07 09:21 34.33601 -65.36351 35111 ft 544 kts 166°
2026-05-07 09:21 34.26323 -65.33805 35111 ft 544 kts 166°
2026-05-07 09:22 34.19044 -65.31264 35112 ft 544 kts 166°
2026-05-07 09:22 34.11766 -65.28729 35109 ft 544 kts 165°
2026-05-07 09:23 34.04485 -65.26197 35111 ft 545 kts 165°
2026-05-07 09:23 33.97202 -65.23668 35110 ft 544 kts 165°
2026-05-07 09:24 33.89919 -65.21143 35113 ft 545 kts 165°
2026-05-07 09:24 33.82636 -65.18624 35111 ft 544 kts 165°
2026-05-07 09:25 33.75354 -65.16109 35114 ft 544 kts 165°
2026-05-07 09:25 33.68069 -65.13597 35112 ft 545 kts 165°
2026-05-07 09:26 33.60784 -65.11090 35107 ft 544 kts 165°
2026-05-07 09:26 33.53510 -65.08592 35113 ft 544 kts 165°
2026-05-07 09:27 33.46224 -65.06093 35113 ft 544 kts 165°
2026-05-07 09:28 33.35352 -65.02373 35115 ft 544 kts 165°
2026-05-07 09:28 33.28068 -64.99886 35116 ft 544 kts 165°
2026-05-07 09:29 33.20783 -64.97403 35118 ft 544 kts 165°
2026-05-07 09:29 33.13496 -64.94923 35117 ft 545 kts 165°
2026-05-07 09:30 33.06208 -64.92448 35122 ft 544 kts 165°
2026-05-07 09:30 32.98931 -64.89981 35105 ft 544 kts 165°
2026-05-07 09:31 32.91650 -64.87516 35119 ft 544 kts 165°
2026-05-07 09:31 32.84367 -64.85054 35108 ft 544 kts 165°
2026-05-07 09:32 32.77088 -64.82599 35109 ft 543 kts 165°
2026-05-07 09:32 32.71047 -64.80564 35108 ft 543 kts 165°
2026-05-07 09:33 32.63771 -64.78117 35107 ft 543 kts 165°
2026-05-07 09:33 32.56494 -64.75674 35104 ft 543 kts 164°
2026-05-07 09:34 32.48045 -64.72843 35105 ft 543 kts 164°
2026-05-07 09:34 32.41956 -64.70806 35106 ft 543 kts 164°
2026-05-07 09:35 32.34852 -64.67836 35105 ft 542 kts 153°
2026-05-07 09:35 32.28117 -64.63846 35104 ft 541 kts 151°
2026-05-07 09:36 32.21471 -64.59675 35109 ft 541 kts 150°
2026-05-07 09:36 32.14833 -64.55492 35110 ft 541 kts 150°
2026-05-07 09:37 32.08191 -64.51340 35108 ft 541 kts 150°
2026-05-07 09:37 32.01535 -64.47203 35109 ft 541 kts 150°
2026-05-07 09:38 31.94878 -64.43077 35116 ft 540 kts 150°
2026-05-07 09:38 31.88222 -64.38958 35116 ft 540 kts 150°
2026-05-07 09:39 31.81608 -64.34870 35118 ft 541 kts 150°
2026-05-07 09:39 31.74948 -64.30760 35113 ft 540 kts 150°
2026-05-07 09:40 31.68292 -64.26660 35113 ft 540 kts 150°
2026-05-07 09:40 31.61643 -64.22570 35113 ft 539 kts 150°
2026-05-07 09:41 31.55000 -64.18491 35113 ft 539 kts 150°
2026-05-07 09:41 31.48341 -64.14408 35115 ft 539 kts 150°
2026-05-07 09:42 31.41690 -64.10337 35108 ft 539 kts 150°
2026-05-07 09:42 31.35049 -64.06279 35113 ft 538 kts 150°
2026-05-07 09:43 31.28416 -64.02232 35107 ft 538 kts 150°
2026-05-07 09:43 31.21784 -63.98192 35113 ft 537 kts 150°
2026-05-07 09:44 31.15152 -63.94159 35114 ft 537 kts 150°
2026-05-07 09:44 31.08524 -63.90134 35114 ft 537 kts 150°
2026-05-07 09:45 31.01944 -63.86145 35112 ft 536 kts 150°
2026-05-07 09:45 30.95326 -63.82139 35114 ft 536 kts 150°
2026-05-07 09:46 30.88699 -63.78134 35106 ft 537 kts 150°
2026-05-07 09:46 30.82075 -63.74137 35115 ft 536 kts 150°
2026-05-07 09:47 30.75459 -63.70152 35115 ft 535 kts 150°
2026-05-07 09:47 30.68848 -63.66174 35116 ft 535 kts 150°
2026-05-07 09:48 30.62235 -63.62203 35111 ft 535 kts 150°
2026-05-07 09:48 30.55620 -63.58236 35110 ft 535 kts 150°
2026-05-07 09:49 30.49003 -63.54274 35112 ft 535 kts 150°
2026-05-07 09:49 30.42392 -63.50322 35108 ft 535 kts 150°
2026-05-07 09:50 30.35773 -63.46371 35110 ft 535 kts 150°
2026-05-07 09:50 30.29152 -63.42425 35105 ft 535 kts 151°
2026-05-07 09:51 30.22542 -63.38492 35112 ft 533 kts 151°
2026-05-07 09:51 30.15987 -63.34597 35112 ft 533 kts 151°
2026-05-07 09:52 30.09388 -63.30681 35110 ft 533 kts 151°
2026-05-07 09:52 30.02793 -63.26775 35108 ft 533 kts 151°
2026-05-07 09:53 29.96184 -63.22866 35105 ft 533 kts 151°
2026-05-07 09:53 29.89593 -63.18973 35114 ft 533 kts 151°
2026-05-07 09:54 29.82996 -63.15083 35105 ft 533 kts 151°
2026-05-07 09:54 29.76398 -63.11198 35113 ft 533 kts 151°
2026-05-07 09:55 29.69732 -63.07468 35109 ft 534 kts 158°
2026-05-07 09:55 29.62739 -63.04589 35111 ft 534 kts 160°
2026-05-07 09:56 29.55688 -63.01892 35106 ft 534 kts 160°
2026-05-07 09:56 29.48624 -62.99230 35106 ft 534 kts 160°
2026-05-07 09:57 29.41574 -62.96562 35103 ft 534 kts 160°
2026-05-07 09:57 29.34525 -62.93886 35115 ft 533 kts 160°
2026-05-07 09:58 29.27482 -62.91211 35105 ft 533 kts 160°
2026-05-07 09:58 29.20486 -62.88558 35113 ft 533 kts 160°
2026-05-07 09:59 29.13442 -62.85892 35108 ft 533 kts 160°
2026-05-07 09:59 29.06405 -62.83232 35110 ft 532 kts 160°
2026-05-07 10:00 28.99381 -62.80579 35111 ft 532 kts 160°
2026-05-07 10:00 28.92351 -62.77930 35111 ft 532 kts 160°
2026-05-07 10:01 28.85318 -62.75283 35104 ft 532 kts 160°
2026-05-07 10:01 28.78304 -62.72648 35109 ft 531 kts 160°
2026-05-07 10:02 28.71292 -62.70016 35111 ft 530 kts 160°
2026-05-07 10:02 28.64280 -62.67388 35106 ft 530 kts 160°
2026-05-07 10:03 28.57266 -62.64763 35103 ft 530 kts 160°
2026-05-07 10:03 28.50259 -62.62145 35118 ft 529 kts 160°
2026-05-07 10:04 28.43261 -62.59533 35111 ft 529 kts 160°
2026-05-07 10:04 28.36310 -62.56943 35120 ft 529 kts 160°
2026-05-07 10:05 28.29311 -62.54338 35101 ft 529 kts 160°
2026-05-07 10:05 28.22314 -62.51738 35109 ft 529 kts 160°
2026-05-07 10:06 28.15305 -62.49137 35105 ft 530 kts 160°
2026-05-07 10:06 28.08288 -62.46536 35111 ft 531 kts 160°
2026-05-07 10:07 28.01277 -62.43941 35105 ft 531 kts 160°
2026-05-07 10:07 27.94258 -62.41347 35105 ft 531 kts 160°
2026-05-07 10:08 27.87237 -62.38755 35118 ft 531 kts 160°
2026-05-07 10:08 27.80217 -62.36168 35103 ft 531 kts 160°
2026-05-07 10:09 27.73197 -62.33584 35122 ft 531 kts 160°
2026-05-07 10:09 27.66176 -62.31003 35105 ft 531 kts 160°
2026-05-07 10:10 27.59163 -62.28429 35097 ft 531 kts 160°
2026-05-07 10:10 27.52141 -62.25854 35112 ft 531 kts 160°
2026-05-07 10:11 27.45118 -62.23283 35098 ft 531 kts 160°
2026-05-07 10:11 27.38143 -62.20733 35107 ft 530 kts 160°
2026-05-07 10:12 27.31125 -62.18171 35103 ft 530 kts 160°
2026-05-07 10:12 27.24108 -62.15613 35115 ft 530 kts 160°
2026-05-07 10:13 27.17098 -62.13060 35104 ft 530 kts 160°
2026-05-07 10:13 27.10081 -62.10508 35097 ft 530 kts 160°
2026-05-07 10:14 27.03074 -62.07963 35111 ft 529 kts 160°
2026-05-07 10:14 26.96067 -62.05421 35116 ft 529 kts 160°
2026-05-07 10:15 26.89070 -62.02887 35107 ft 529 kts 160°
2026-05-07 10:15 26.82065 -62.00352 35091 ft 529 kts 160°
2026-05-07 10:16 26.75063 -61.97823 35110 ft 529 kts 160°
2026-05-07 10:16 26.68063 -61.95297 35110 ft 528 kts 160°
2026-05-07 10:17 26.61066 -61.92775 35090 ft 529 kts 160°
2026-05-07 10:17 26.54064 -61.90256 35098 ft 528 kts 160°
2026-05-07 10:18 26.47071 -61.87743 35115 ft 527 kts 160°
2026-05-07 10:18 26.40088 -61.85236 35102 ft 527 kts 160°
2026-05-07 10:19 26.33104 -61.82732 35117 ft 527 kts 160°
2026-05-07 10:19 26.26163 -61.80246 35106 ft 527 kts 160°
2026-05-07 10:20 26.19193 -61.77754 35103 ft 525 kts 160°
2026-05-07 10:20 26.12246 -61.75273 35103 ft 524 kts 160°
2026-05-07 10:21 26.05309 -61.72798 35102 ft 524 kts 160°
2026-05-07 10:21 25.98359 -61.70321 35103 ft 524 kts 160°
2026-05-07 10:22 25.91415 -61.67851 35103 ft 523 kts 161°
2026-05-07 10:22 25.84476 -61.65384 35102 ft 523 kts 161°
2026-05-07 10:23 25.77547 -61.62924 35103 ft 523 kts 161°
2026-05-07 10:23 25.71784 -61.60881 35102 ft 523 kts 161°
2026-05-07 10:24 25.64854 -61.58427 35104 ft 522 kts 161°
2026-05-07 10:24 25.57939 -61.55981 35104 ft 521 kts 161°
2026-05-07 10:25 25.51032 -61.53540 35105 ft 521 kts 161°
2026-05-07 10:25 25.44125 -61.51103 35105 ft 521 kts 161°
2026-05-07 10:26 25.37224 -61.48670 35101 ft 521 kts 162°
2026-05-07 10:26 25.30335 -61.46244 35107 ft 518 kts 162°
2026-05-07 10:27 25.23470 -61.43830 35111 ft 517 kts 162°
2026-05-07 10:27 25.16606 -61.41420 35111 ft 518 kts 162°
2026-05-07 10:28 25.09741 -61.39011 35108 ft 518 kts 162°
2026-05-07 10:28 25.02882 -61.36609 35107 ft 516 kts 162°
2026-05-07 10:29 24.96049 -61.34217 35111 ft 515 kts 162°
2026-05-07 10:29 24.89226 -61.31833 35110 ft 513 kts 163°
2026-05-07 10:30 24.79037 -61.28276 35113 ft 512 kts 163°
2026-05-07 10:30 24.72255 -61.25912 35113 ft 512 kts 163°
2026-05-07 10:31 24.65463 -61.23547 35110 ft 512 kts 163°
2026-05-07 10:31 24.58670 -61.21185 35113 ft 512 kts 163°
2026-05-07 10:32 24.51922 -61.18841 35113 ft 512 kts 163°
2026-05-07 10:32 24.45132 -61.16485 35113 ft 511 kts 163°
2026-05-07 10:33 24.38356 -61.14136 35113 ft 510 kts 163°
2026-05-07 10:33 24.31585 -61.11793 35113 ft 510 kts 163°
2026-05-07 10:34 24.24813 -61.09451 35116 ft 510 kts 163°
2026-05-07 10:34 24.18045 -61.07113 35111 ft 510 kts 163°
2026-05-07 10:35 24.11275 -61.04777 35111 ft 510 kts 163°
2026-05-07 10:35 24.04518 -61.02448 35112 ft 508 kts 164°
2026-05-07 10:36 23.97794 -61.00133 35115 ft 506 kts 164°
2026-05-07 10:36 23.91075 -60.97823 35115 ft 506 kts 164°
2026-05-07 10:37 23.84361 -60.95517 35115 ft 505 kts 164°
2026-05-07 10:37 23.77665 -60.93219 35116 ft 504 kts 164°
2026-05-07 10:38 23.70967 -60.90923 35116 ft 504 kts 164°
2026-05-07 10:38 23.64283 -60.88635 35116 ft 504 kts 164°
2026-05-07 10:39 23.57590 -60.86345 35114 ft 504 kts 164°
2026-05-07 10:39 23.50912 -60.84063 35119 ft 503 kts 164°
2026-05-07 10:40 23.44240 -60.81786 35118 ft 502 kts 164°
2026-05-07 10:40 23.37567 -60.79512 35118 ft 502 kts 164°
2026-05-07 10:41 23.30894 -60.77239 35121 ft 502 kts 164°
2026-05-07 10:41 23.24223 -60.74969 35123 ft 502 kts 165°
2026-05-07 10:42 23.17582 -60.72711 35121 ft 498 kts 165°
2026-05-07 10:42 23.10974 -60.70468 35121 ft 497 kts 165°
2026-05-07 10:43 23.04412 -60.68243 35121 ft 497 kts 165°
2026-05-07 10:43 22.97805 -60.66005 35114 ft 497 kts 165°
2026-05-07 10:44 22.91167 -60.63758 35119 ft 496 kts 165°
2026-05-07 10:44 22.84572 -60.61528 35119 ft 496 kts 165°
2026-05-07 10:45 22.78017 -60.59314 35121 ft 496 kts 165°
2026-05-07 10:45 22.71428 -60.57090 35121 ft 496 kts 165°
2026-05-07 10:46 22.64832 -60.54867 35118 ft 496 kts 165°
2026-05-07 10:46 22.58239 -60.52647 35119 ft 496 kts 165°
2026-05-07 10:47 22.51645 -60.50428 35121 ft 496 kts 165°
2026-05-07 10:47 22.45051 -60.48212 35121 ft 496 kts 165°
2026-05-07 10:48 22.38455 -60.45998 35118 ft 496 kts 165°
2026-05-07 10:48 22.31868 -60.43788 35116 ft 495 kts 165°
2026-05-07 10:49 22.25300 -60.41587 35123 ft 495 kts 165°
2026-05-07 10:49 22.18724 -60.39386 35116 ft 495 kts 165°
2026-05-07 10:50 22.12147 -60.37186 35122 ft 495 kts 165°
2026-05-07 10:50 22.05615 -60.35004 35112 ft 495 kts 165°
2026-05-07 10:51 21.99034 -60.32808 35121 ft 495 kts 165°
2026-05-07 10:51 21.92445 -60.30611 35124 ft 496 kts 165°
2026-05-07 10:52 21.85855 -60.28415 35121 ft 496 kts 165°
2026-05-07 10:52 21.79265 -60.26222 35123 ft 496 kts 165°
2026-05-07 10:53 21.72632 -60.24016 35123 ft 496 kts 165°
2026-05-07 10:53 21.66094 -60.21845 35120 ft 495 kts 165°
2026-05-07 10:54 21.59506 -60.19659 35123 ft 495 kts 165°
2026-05-07 10:54 21.52916 -60.17474 35122 ft 496 kts 165°
2026-05-07 10:55 21.46332 -60.15292 35109 ft 494 kts 166°
2026-05-07 10:55 21.39772 -60.13121 35120 ft 492 kts 166°
2026-05-07 10:56 21.33231 -60.10959 35124 ft 492 kts 166°
2026-05-07 10:56 21.26690 -60.08799 35124 ft 492 kts 166°
2026-05-07 10:57 21.20155 -60.06643 35121 ft 492 kts 166°
2026-05-07 10:57 21.13611 -60.04486 35119 ft 492 kts 166°
2026-05-07 10:58 21.07082 -60.02334 35118 ft 490 kts 166°
2026-05-07 10:58 21.00563 -60.00189 35118 ft 490 kts 166°
2026-05-07 10:59 20.94055 -59.98002 35122 ft 490 kts 165°
2026-05-07 10:59 20.87553 -59.95786 35122 ft 490 kts 165°
2026-05-07 11:00 20.81052 -59.93573 35127 ft 490 kts 165°
2026-05-07 11:00 20.74600 -59.91383 35122 ft 489 kts 165°
2026-05-07 11:01 20.68071 -59.89171 35129 ft 489 kts 165°
2026-05-07 11:01 20.61624 -59.86989 35115 ft 489 kts 166°
2026-05-07 11:02 20.55150 -59.84800 35112 ft 488 kts 166°
2026-05-07 11:02 20.48682 -59.82616 35120 ft 487 kts 166°
2026-05-07 11:03 20.42215 -59.80434 35120 ft 487 kts 166°
2026-05-07 11:03 20.35747 -59.78253 35121 ft 487 kts 166°
2026-05-07 11:04 20.29280 -59.76074 35116 ft 487 kts 166°
2026-05-07 11:04 20.22812 -59.73897 35107 ft 487 kts 166°
2026-05-07 11:05 20.16345 -59.71722 35117 ft 487 kts 166°
2026-05-07 11:05 20.09877 -59.69549 35115 ft 487 kts 166°
2026-05-07 11:06 20.03415 -59.67380 35113 ft 487 kts 166°
2026-05-07 11:06 19.96946 -59.65210 35117 ft 487 kts 166°
2026-05-07 11:07 19.90476 -59.63041 35110 ft 487 kts 166°
2026-05-07 11:07 19.84008 -59.60875 35114 ft 486 kts 166°
2026-05-07 11:08 19.77560 -59.58717 35118 ft 485 kts 166°
2026-05-07 11:08 19.71145 -59.56573 35115 ft 483 kts 166°
2026-05-07 11:09 19.64732 -59.54431 35113 ft 483 kts 166°
2026-05-07 11:09 19.58359 -59.52305 35115 ft 482 kts 166°
2026-05-07 11:10 19.51985 -59.50178 35120 ft 479 kts 166°
2026-05-07 11:10 19.45637 -59.48063 35116 ft 478 kts 167°
2026-05-07 11:11 19.40366 -59.46309 35111 ft 478 kts 167°
2026-05-07 11:11 19.34018 -59.44198 35113 ft 478 kts 166°
2026-05-07 11:12 19.27667 -59.42087 35111 ft 478 kts 167°
2026-05-07 11:12 19.21340 -59.39984 35113 ft 475 kts 167°
2026-05-07 11:13 19.15030 -59.37890 35111 ft 475 kts 167°
2026-05-07 11:13 19.08720 -59.35799 35110 ft 475 kts 167°
2026-05-07 11:14 19.02407 -59.33708 35113 ft 475 kts 167°
2026-05-07 11:14 18.96100 -59.31619 35097 ft 475 kts 167°
2026-05-07 11:15 18.89802 -59.29536 35108 ft 473 kts 167°
2026-05-07 11:15 18.83519 -59.27459 35111 ft 473 kts 167°
2026-05-07 11:16 18.77236 -59.25384 35113 ft 473 kts 167°
2026-05-07 11:16 18.70992 -59.23324 35112 ft 473 kts 167°
2026-05-07 11:17 18.64710 -59.21252 35104 ft 473 kts 167°
2026-05-07 11:17 18.58433 -59.19184 35105 ft 473 kts 167°
2026-05-07 11:18 18.52150 -59.17115 35108 ft 473 kts 167°
2026-05-07 11:18 18.45864 -59.15047 35108 ft 473 kts 167°
2026-05-07 11:19 18.39578 -59.12981 35101 ft 473 kts 167°
2026-05-07 11:19 18.33295 -59.10916 35100 ft 473 kts 168°
2026-05-07 11:20 18.27001 -59.08851 35098 ft 474 kts 168°
2026-05-07 11:20 18.20709 -59.06787 35101 ft 474 kts 168°
2026-05-07 11:21 18.14412 -59.04723 35112 ft 474 kts 168°
2026-05-07 11:21 18.08113 -59.02660 35098 ft 474 kts 168°
2026-05-07 11:22 18.01813 -59.00598 35099 ft 474 kts 168°
2026-05-07 11:22 17.95516 -58.98464 35105 ft 476 kts 167°
2026-05-07 11:23 17.89235 -58.96240 35105 ft 476 kts 166°
2026-05-07 11:23 17.82955 -58.94009 35105 ft 476 kts 167°
2026-05-07 11:24 17.76673 -58.91791 35105 ft 476 kts 167°
2026-05-07 11:24 17.70394 -58.89583 35095 ft 476 kts 167°
2026-05-07 11:25 17.64108 -58.87376 35099 ft 476 kts 167°
2026-05-07 11:25 17.57820 -58.85170 35101 ft 476 kts 167°
2026-05-07 11:26 17.51531 -58.82964 35099 ft 476 kts 167°
2026-05-07 11:26 17.45278 -58.80773 35100 ft 476 kts 167°
2026-05-07 11:27 17.38996 -58.78572 35091 ft 476 kts 167°
2026-05-07 11:27 17.32709 -58.76372 35097 ft 476 kts 167°
2026-05-07 11:28 17.26422 -58.74174 35096 ft 476 kts 167°
2026-05-07 11:28 17.20135 -58.71977 35100 ft 476 kts 167°
2026-05-07 11:29 17.13851 -58.69782 35097 ft 476 kts 167°
2026-05-07 11:29 17.07565 -58.67589 35092 ft 476 kts 167°
2026-05-07 11:30 17.01285 -58.65398 35101 ft 475 kts 167°
2026-05-07 11:30 16.95009 -58.63212 35096 ft 475 kts 167°
2026-05-07 11:31 16.88732 -58.61026 35094 ft 475 kts 167°
2026-05-07 11:31 16.82496 -58.58857 35096 ft 475 kts 167°
2026-05-07 11:32 16.73082 -58.55583 35099 ft 475 kts 167°
2026-05-07 11:33 16.66823 -58.53408 35096 ft 474 kts 167°
2026-05-07 11:33 16.60562 -58.51235 35098 ft 474 kts 167°
2026-05-07 11:34 16.54301 -58.49064 35101 ft 474 kts 167°
2026-05-07 11:34 16.48033 -58.46891 35097 ft 474 kts 167°
2026-05-07 11:35 16.41787 -58.44727 35094 ft 472 kts 167°
2026-05-07 11:35 16.35565 -58.42572 35095 ft 471 kts 167°
2026-05-07 11:36 16.29340 -58.40419 35095 ft 471 kts 167°
2026-05-07 11:36 16.23113 -58.38267 35095 ft 471 kts 167°
2026-05-07 11:37 16.16879 -58.36114 35092 ft 471 kts 167°
2026-05-07 11:37 16.10659 -58.33966 35093 ft 471 kts 167°
2026-05-07 11:38 16.04433 -58.31818 35093 ft 471 kts 167°
2026-05-07 11:38 15.98205 -58.29670 35093 ft 472 kts 167°
2026-05-07 11:39 15.91976 -58.27524 35095 ft 471 kts 167°
2026-05-07 11:39 15.85749 -58.25380 35092 ft 471 kts 167°
2026-05-07 11:40 15.79523 -58.23237 35087 ft 471 kts 167°
2026-05-07 11:40 15.73290 -58.21094 35092 ft 472 kts 167°
2026-05-07 11:41 15.67052 -58.18950 35091 ft 472 kts 167°
2026-05-07 11:41 15.60847 -58.16819 35092 ft 473 kts 167°
2026-05-07 11:42 15.54597 -58.14674 35091 ft 473 kts 167°
2026-05-07 11:42 15.48348 -58.12530 35091 ft 473 kts 167°
2026-05-07 11:43 15.42099 -58.10387 35091 ft 473 kts 167°
2026-05-07 11:43 15.35849 -58.08246 35091 ft 473 kts 167°
2026-05-07 11:44 15.29606 -58.06109 35089 ft 473 kts 167°
2026-05-07 11:44 15.23357 -58.03971 35089 ft 473 kts 167°
2026-05-07 11:45 15.17107 -58.01834 35080 ft 473 kts 167°
2026-05-07 11:45 15.10848 -57.99696 35086 ft 474 kts 167°
2026-05-07 11:46 15.04581 -57.97556 35082 ft 474 kts 167°
2026-05-07 11:46 14.98315 -57.95417 35083 ft 474 kts 167°
2026-05-07 11:47 14.92048 -57.93279 35083 ft 474 kts 167°
2026-05-07 11:47 14.85780 -57.91143 35072 ft 475 kts 167°
2026-05-07 11:48 14.79500 -57.89005 35083 ft 476 kts 167°
2026-05-07 11:48 14.73201 -57.86860 35081 ft 477 kts 167°
2026-05-07 11:49 14.66943 -57.84730 35078 ft 477 kts 167°
2026-05-07 11:49 14.60645 -57.82587 35088 ft 476 kts 167°
2026-05-07 11:50 14.54347 -57.80447 35079 ft 476 kts 167°
2026-05-07 11:50 14.48053 -57.78310 35087 ft 477 kts 167°
2026-05-07 11:51 14.41749 -57.76170 35081 ft 477 kts 167°
2026-05-07 11:51 14.35443 -57.74031 35083 ft 477 kts 167°
2026-05-07 11:52 14.29137 -57.71892 35074 ft 477 kts 167°
2026-05-07 11:52 14.22830 -57.69756 35074 ft 477 kts 167°
2026-05-07 11:53 14.16519 -57.67619 35085 ft 478 kts 166°
2026-05-07 11:53 14.10209 -57.65483 35085 ft 478 kts 166°
2026-05-07 11:54 14.03882 -57.63343 35081 ft 478 kts 166°
2026-05-07 11:54 13.97551 -57.61203 35079 ft 479 kts 166°
2026-05-07 11:55 13.91220 -57.59064 35081 ft 479 kts 166°
2026-05-07 11:55 13.84885 -57.56925 35079 ft 479 kts 166°
2026-05-07 11:56 13.78548 -57.54787 35078 ft 480 kts 166°
2026-05-07 11:56 13.72202 -57.52646 35074 ft 480 kts 166°
2026-05-07 11:57 13.65857 -57.50508 35068 ft 480 kts 166°
2026-05-07 11:57 13.59513 -57.48370 35066 ft 480 kts 166°
2026-05-07 11:58 13.53215 -57.46250 35076 ft 480 kts 166°
2026-05-07 11:58 13.47888 -57.44458 35073 ft 481 kts 166°
2026-05-07 11:59 13.40501 -57.41973 35075 ft 481 kts 166°
2026-05-07 11:59 13.34144 -57.39836 35075 ft 481 kts 166°
2026-05-07 12:00 13.28856 -57.38060 35067 ft 481 kts 166°
2026-05-07 12:00 13.22508 -57.35928 35074 ft 480 kts 166°
2026-05-07 12:01 13.16148 -57.33794 35075 ft 481 kts 166°
2026-05-07 12:01 13.09791 -57.31662 35069 ft 481 kts 166°
2026-05-07 12:02 13.03430 -57.29536 35068 ft 481 kts 166°
2026-05-07 12:02 12.97068 -57.27422 35068 ft 481 kts 166°
2026-05-07 12:03 12.90707 -57.25311 35069 ft 481 kts 166°
2026-05-07 12:03 12.84334 -57.23196 35067 ft 482 kts 166°
2026-05-07 12:04 12.77957 -57.21079 35067 ft 482 kts 166°
2026-05-07 12:04 12.71582 -57.18964 35062 ft 481 kts 166°
2026-05-07 12:05 12.65207 -57.16850 35061 ft 481 kts 166°
2026-05-07 12:05 12.58834 -57.14739 35059 ft 482 kts 166°
2026-05-07 12:06 12.52486 -57.12637 35064 ft 482 kts 166°
2026-05-07 12:06 12.46104 -57.10524 35058 ft 482 kts 165°
2026-05-07 12:07 12.39710 -57.08409 35064 ft 483 kts 165°
2026-05-07 12:07 12.33309 -57.06292 35062 ft 483 kts 165°
2026-05-07 12:08 12.26913 -57.04178 35058 ft 483 kts 165°
2026-05-07 12:08 12.20513 -57.02064 35059 ft 483 kts 165°
2026-05-07 12:09 12.14113 -56.99951 35056 ft 483 kts 165°
2026-05-07 12:09 12.07713 -56.97839 35055 ft 483 kts 165°
2026-05-07 12:10 12.01318 -56.95730 35059 ft 483 kts 165°
2026-05-07 12:10 11.94916 -56.93620 35056 ft 484 kts 165°
2026-05-07 12:11 11.88503 -56.91507 35056 ft 484 kts 165°
2026-05-07 12:11 11.82086 -56.89393 35055 ft 484 kts 165°
2026-05-07 12:12 11.75667 -56.87280 35053 ft 484 kts 165°
2026-05-07 12:12 11.69250 -56.85169 35052 ft 484 kts 165°
2026-05-07 12:13 11.62830 -56.83058 35051 ft 486 kts 165°
2026-05-07 12:13 11.56391 -56.80942 35054 ft 487 kts 165°
2026-05-07 12:14 11.49939 -56.78822 35052 ft 487 kts 165°
2026-05-07 12:14 11.43483 -56.76702 35053 ft 487 kts 165°
2026-05-07 12:15 11.37029 -56.74583 35047 ft 487 kts 165°
2026-05-07 12:15 11.30575 -56.72466 35047 ft 487 kts 165°
2026-05-07 12:16 11.24119 -56.70349 35047 ft 487 kts 165°
2026-05-07 12:16 11.17666 -56.68234 35048 ft 488 kts 165°
2026-05-07 12:17 11.11206 -56.66117 35048 ft 488 kts 165°
2026-05-07 12:17 11.04748 -56.64002 35044 ft 487 kts 165°
2026-05-07 12:18 10.98333 -56.61902 35052 ft 487 kts 165°
2026-05-07 12:18 10.91883 -56.59791 35047 ft 487 kts 165°
2026-05-07 12:19 10.85425 -56.57679 35047 ft 487 kts 165°
2026-05-07 12:19 10.78968 -56.55569 35051 ft 487 kts 165°
2026-05-07 12:20 10.72512 -56.53459 35047 ft 487 kts 165°
2026-05-07 12:20 10.66059 -56.51332 35041 ft 488 kts 165°
2026-05-07 12:21 10.59611 -56.49183 35045 ft 488 kts 165°
2026-05-07 12:21 10.53162 -56.47033 35043 ft 488 kts 165°
2026-05-07 12:22 10.46711 -56.44887 35041 ft 488 kts 165°
2026-05-07 12:22 10.40268 -56.42745 35037 ft 488 kts 165°
2026-05-07 12:23 10.33811 -56.40601 35039 ft 488 kts 165°
2026-05-07 12:23 10.27361 -56.38459 35039 ft 488 kts 165°
2026-05-07 12:24 10.20911 -56.36319 35039 ft 488 kts 165°
2026-05-07 12:24 10.14469 -56.34181 35037 ft 488 kts 165°
2026-05-07 12:25 10.08020 -56.32043 35039 ft 488 kts 165°
2026-05-07 12:25 10.01571 -56.29905 35032 ft 487 kts 165°
2026-05-07 12:26 9.95139 -56.27774 35038 ft 486 kts 165°
2026-05-07 12:26 9.88718 -56.25647 35032 ft 486 kts 165°
2026-05-07 12:27 9.82335 -56.23534 35032 ft 486 kts 165°
2026-05-07 12:27 9.75866 -56.21394 35030 ft 486 kts 165°
2026-05-07 12:28 9.69452 -56.19272 35031 ft 485 kts 165°